If you wish to contribute or participate in the discussions about articles you are invited to join SKYbrary as a registered user

 Actions

Albury Airport

From SKYbrary Wiki

YMAY
Airport
ICAO: YMAY – IATA: ABX
Summary
Name Albury Airport
Region Asia and Pacific
Territory Australia AU.gif
Location , New South Wales
Serving Albury
Elevation 164.287 m
539 ft
539 ft164.287 m
Type medium airport
Coordinates 36° 4' 4.01" S, 146° 57' 29.02" E
Runways
Designator Length Width Surface ROPS
7/25 1900 m6,233.596 ft
30 m98.425 ft
ASP /


METAR
Observation YMAY 190100Z AUTO 04003KT 9999 // NCD 24/12 Q1026
Station Albury Airport
Date/Time 19 April 2019 01:00:00
Wind direction 40°
Wind speed 03 kts
Lowest cloud amount no clouds detected
Temperature 24°C
Dew point 12°C
Humidity 47%
QNH 1026 hPa
Weather condition n/a